This is the latest recevied weather packets stored in our database for station/object K0CVS. If no packets are shown the sender has not sent any weather packets the latest 10 day(s).
| Time | Temp. | Humidity | Pressure | Rain* | Wind** | Luminosity | Snow |
|---|---|---|---|---|---|---|---|
| 1777985185 | 9.44° C | 77% | 1010.4 hPa | 0 mm | - | 18 W/m² | - |
| 1777984881 | 9.44° C | 77% | 1010.2 hPa | 1.78 mm | - | 21 W/m² | - |
| 1777984577 | 9.44° C | 80% | 1010.1 hPa | 1.78 mm | - | 23 W/m² | - |
| 1777984274 | 9.44° C | 80% | 1009.9 hPa | 0 mm | - | 23 W/m² | - |
| 1777983971 | 9.44° C | 78% | 1010.3 hPa | 0 mm | - | 26 W/m² | - |
| 1777983668 | 9.44° C | 78% | 1010.1 hPa | 0 mm | - | 13 W/m² | - |
| 1777983364 | 9.44° C | 80% | 1009.9 hPa | 0 mm | - | 5 W/m² | - |
| 1777983061 | 9.44° C | 80% | 1010.3 hPa | 0 mm | - | 2 W/m² | - |
| 1777982757 | 8.89° C | 79% | 1009.8 hPa | 0 mm | - | 5 W/m² | - |
| 1777982454 | 9.44° C | 82% | 1009.8 hPa | 0 mm | - | 4 W/m² | - |
| 1777982148 | 9.44° C | 80% | 1009.8 hPa | 0 mm | - | 5 W/m² | - |
| 1777981846 | 8.89° C | 80% | 1009.6 hPa | 0 mm | - | 4 W/m² | - |
| 1777981543 | 9.44° C | 83% | 1009.6 hPa | 0 mm | - | 2 W/m² | - |
| 1777981239 | 9.44° C | 81% | 1009.7 hPa | 0 mm | - | 2 W/m² | - |
| 1777980935 | 9.44° C | 77% | 1009.7 hPa | 0 mm | - | 2 W/m² | - |
| 1777980632 | 9.44° C | 79% | 1009.7 hPa | 0 mm | - | 1 W/m² | - |
| 1777980328 | 10° C | 76% | 1009.7 hPa | 0 mm | - | 0 W/m² | - |
| 1777980027 | 10° C | 74% | 1009.5 hPa | 0 mm | - | 0 W/m² | - |
| 1777979720 | 10° C | 73% | 1009.6 hPa | 0 mm | - | 0 W/m² | - |
| 1777979416 | 10° C | 74% | 1009.7 hPa | 0 mm | - | 0 W/m² | - |
| 1777979113 | 10° C | 74% | 1009.4 hPa | 1.27 mm | - | 0 W/m² | - |
| 1777978810 | 10° C | 75% | 1009.5 hPa | 1.27 mm | - | 0 W/m² | - |
| 1777978506 | 10° C | 78% | 1009.3 hPa | 0 mm | - | 0 W/m² | - |
| 1777978202 | 10° C | 77% | 1009.1 hPa | 0 mm | - | 0 W/m² | - |
| 1777977899 | 10° C | 77% | 1009.4 hPa | 0 mm | - | 0 W/m² | - |
* Rain latest hour (hover to see other rain measurements)
** Current wind speed in m/s (hover to see current wind gust speed)